Year,Month,Day,Hour,Minute,Value (Times are PST for temperature in C)
2009,08,18,00,00,15.40
2009,08,18,00,01,15.40
2009,08,18,00,02,15.40
2009,08,18,00,03,15.30
2009,08,18,00,04,15.30
2009,08,18,00,05,15.30
2009,08,18,00,06,15.30
2009,08,18,00,07,15.30
2009,08,18,00,08,15.30
2009,08,18,00,09,15.30
2009,08,18,00,10,15.30
2009,08,18,00,11,15.30
2009,08,18,00,12,15.30
2009,08,18,00,13,15.30
2009,08,18,00,14,15.30
2009,08,18,00,15,15.30
2009,08,18,00,16,15.30
2009,08,18,00,17,15.30
2009,08,18,00,18,15.20
2009,08,18,00,19,15.20
2009,08,18,00,20,15.20
2009,08,18,00,21,15.20
2009,08,18,00,22,15.20
2009,08,18,00,23,15.20
2009,08,18,00,24,15.20
2009,08,18,00,25,15.20
2009,08,18,00,26,15.10
2009,08,18,00,27,15.10
2009,08,18,00,28,15.10
2009,08,18,00,29,15.10
2009,08,18,00,30,15.10
2009,08,18,00,31,15.00
2009,08,18,00,32,15.00
2009,08,18,00,33,15.00
2009,08,18,00,34,15.00
2009,08,18,00,35,15.00
2009,08,18,00,36,15.00
2009,08,18,00,37,15.00
2009,08,18,00,38,15.00
2009,08,18,00,39,15.00
2009,08,18,00,40,15.00
2009,08,18,00,41,15.00
2009,08,18,00,42,15.00
2009,08,18,00,43,15.00
2009,08,18,00,44,15.00
2009,08,18,00,45,15.00
2009,08,18,00,46,15.00
2009,08,18,00,47,15.00
2009,08,18,00,48,15.00
2009,08,18,00,49,15.00
2009,08,18,00,50,14.90
2009,08,18,00,51,14.90
2009,08,18,00,52,14.90
2009,08,18,00,53,14.90
2009,08,18,00,54,14.90
2009,08,18,00,55,14.80
2009,08,18,00,56,14.80
2009,08,18,00,57,14.80
2009,08,18,00,58,14.80
2009,08,18,00,59,14.80
2009,08,18,01,00,14.80
2009,08,18,01,01,14.80
2009,08,18,01,02,14.80
2009,08,18,01,03,14.80
2009,08,18,01,04,14.80
2009,08,18,01,05,14.80
2009,08,18,01,06,14.80
2009,08,18,01,07,14.80
2009,08,18,01,08,14.80
2009,08,18,01,09,14.80
2009,08,18,01,10,14.80
2009,08,18,01,11,14.80
2009,08,18,01,12,14.80
2009,08,18,01,13,14.80
2009,08,18,01,14,14.80
2009,08,18,01,15,14.80
2009,08,18,01,16,14.80
2009,08,18,01,17,14.80
2009,08,18,01,18,14.80
2009,08,18,01,19,14.80
2009,08,18,01,20,14.80
2009,08,18,01,21,14.80
2009,08,18,01,22,14.80
2009,08,18,01,23,14.80
2009,08,18,01,24,14.80
2009,08,18,01,25,14.80
2009,08,18,01,26,14.80
2009,08,18,01,27,14.80
2009,08,18,01,28,14.80
2009,08,18,01,29,14.80
2009,08,18,01,30,14.80
2009,08,18,01,31,14.80
2009,08,18,01,32,14.80
2009,08,18,01,33,14.80
2009,08,18,01,34,14.80
2009,08,18,01,35,14.80
2009,08,18,01,36,14.80
2009,08,18,01,37,14.80
2009,08,18,01,38,14.80
2009,08,18,01,39,14.80
2009,08,18,01,40,14.80
2009,08,18,01,41,14.80
2009,08,18,01,42,14.80
2009,08,18,01,43,14.80
2009,08,18,01,44,14.80
2009,08,18,01,45,14.80
2009,08,18,01,46,14.80
2009,08,18,01,47,14.80
2009,08,18,01,48,14.80
2009,08,18,01,49,14.80
2009,08,18,01,50,14.80
2009,08,18,01,51,14.80
2009,08,18,01,52,14.80
2009,08,18,01,53,14.80
2009,08,18,01,54,14.80
2009,08,18,01,55,14.80
2009,08,18,01,56,14.80
2009,08,18,01,57,14.80
2009,08,18,01,58,14.80
2009,08,18,01,59,14.80
2009,08,18,02,00,14.80
2009,08,18,02,01,14.80
2009,08,18,02,02,14.70
2009,08,18,02,03,14.70
2009,08,18,02,04,14.70
2009,08,18,02,05,14.70
2009,08,18,02,06,14.70
2009,08,18,02,07,14.70
2009,08,18,02,08,14.70
2009,08,18,02,09,14.70
2009,08,18,02,10,14.70
2009,08,18,02,11,14.70
2009,08,18,02,12,14.70
2009,08,18,02,13,14.70
2009,08,18,02,14,14.70
2009,08,18,02,15,14.70
2009,08,18,02,16,14.70
2009,08,18,02,17,14.70
2009,08,18,02,18,14.70
2009,08,18,02,19,14.70
2009,08,18,02,20,14.70
2009,08,18,02,21,14.70
2009,08,18,02,22,14.70
2009,08,18,02,23,14.60
2009,08,18,02,24,14.60
2009,08,18,02,25,14.60
2009,08,18,02,26,14.60
2009,08,18,02,27,14.60
2009,08,18,02,28,14.60
2009,08,18,02,29,14.60
2009,08,18,02,30,14.60
2009,08,18,02,31,14.60
2009,08,18,02,32,14.60
2009,08,18,02,33,14.50
2009,08,18,02,34,14.50
2009,08,18,02,35,14.50
2009,08,18,02,36,14.50
2009,08,18,02,37,14.50
2009,08,18,02,38,14.50
2009,08,18,02,39,14.50
2009,08,18,02,40,14.40
2009,08,18,02,41,14.40
2009,08,18,02,42,14.40
2009,08,18,02,43,14.40
2009,08,18,02,44,14.40
2009,08,18,02,45,14.40
2009,08,18,02,46,14.40
2009,08,18,02,47,14.40
2009,08,18,02,48,14.40
2009,08,18,02,49,14.40
2009,08,18,02,50,14.40
2009,08,18,02,51,14.40
2009,08,18,02,52,14.40
2009,08,18,02,53,14.40
2009,08,18,02,54,14.40
2009,08,18,02,55,14.30
2009,08,18,02,56,14.30
2009,08,18,02,57,14.30
2009,08,18,02,58,14.30
2009,08,18,02,59,14.30
2009,08,18,03,00,14.30
2009,08,18,03,01,14.30
2009,08,18,03,02,14.30
2009,08,18,03,03,14.30
2009,08,18,03,04,14.30
2009,08,18,03,05,14.20
2009,08,18,03,06,14.20
2009,08,18,03,07,14.20
2009,08,18,03,08,14.20
2009,08,18,03,09,14.20
2009,08,18,03,10,14.20
2009,08,18,03,11,14.20
2009,08,18,03,12,14.20
2009,08,18,03,13,14.20
2009,08,18,03,14,14.10
2009,08,18,03,15,14.10
2009,08,18,03,16,14.10
2009,08,18,03,17,14.10
2009,08,18,03,18,14.10
2009,08,18,03,19,14.10
2009,08,18,03,20,14.10
2009,08,18,03,21,14.10
2009,08,18,03,22,14.10
2009,08,18,03,23,14.10
2009,08,18,03,24,14.10
2009,08,18,03,25,14.10
2009,08,18,03,26,14.00
2009,08,18,03,27,14.00
2009,08,18,03,28,14.00
2009,08,18,03,29,14.00
2009,08,18,03,30,14.00
2009,08,18,03,31,14.00
2009,08,18,03,32,13.90
2009,08,18,03,33,13.90
2009,08,18,03,34,13.90
2009,08,18,03,35,13.90
2009,08,18,03,36,13.90
2009,08,18,03,37,13.90
2009,08,18,03,38,13.90
2009,08,18,03,39,13.90
2009,08,18,03,40,13.90
2009,08,18,03,41,13.90
2009,08,18,03,42,13.90
2009,08,18,03,43,13.90
2009,08,18,03,44,13.80
2009,08,18,03,45,13.80
2009,08,18,03,46,13.80
2009,08,18,03,47,13.80
2009,08,18,03,48,13.80
2009,08,18,03,49,13.70
2009,08,18,03,50,13.70
2009,08,18,03,51,13.70
2009,08,18,03,52,13.70
2009,08,18,03,53,13.70
2009,08,18,03,54,13.70
2009,08,18,03,55,13.60
2009,08,18,03,56,13.60
2009,08,18,03,57,13.60
2009,08,18,03,58,13.60
2009,08,18,03,59,13.60
2009,08,18,04,00,13.60
2009,08,18,04,01,13.60
2009,08,18,04,02,13.50
2009,08,18,04,03,13.50
2009,08,18,04,04,13.50
2009,08,18,04,05,13.50
2009,08,18,04,06,13.40
2009,08,18,04,07,13.40
2009,08,18,04,08,13.40
2009,08,18,04,09,13.40
2009,08,18,04,10,13.40
2009,08,18,04,11,13.40
2009,08,18,04,12,13.40
2009,08,18,04,13,13.40
2009,08,18,04,14,13.40
2009,08,18,04,15,13.40
2009,08,18,04,16,13.40
2009,08,18,04,17,13.30
2009,08,18,04,18,13.30
2009,08,18,04,19,13.30
2009,08,18,04,20,13.30
2009,08,18,04,21,13.30
2009,08,18,04,22,13.30
2009,08,18,04,23,13.30
2009,08,18,04,24,13.30
2009,08,18,04,25,13.30
2009,08,18,04,26,13.30
2009,08,18,04,27,13.30
2009,08,18,04,28,13.30
2009,08,18,04,29,13.30
2009,08,18,04,30,13.30
2009,08,18,04,31,13.30
2009,08,18,04,32,13.30
2009,08,18,04,33,13.30
2009,08,18,04,34,13.30
2009,08,18,04,35,13.30
2009,08,18,04,36,13.30
2009,08,18,04,37,13.30
2009,08,18,04,38,13.30
2009,08,18,04,39,13.30
2009,08,18,04,40,13.30
2009,08,18,04,41,13.30
2009,08,18,04,42,13.30
2009,08,18,04,43,13.30
2009,08,18,04,44,13.20
2009,08,18,04,45,13.20
2009,08,18,04,46,13.20
2009,08,18,04,47,13.20
2009,08,18,04,48,13.20
2009,08,18,04,49,13.20
2009,08,18,04,50,13.20
2009,08,18,04,51,13.20
2009,08,18,04,52,13.20
2009,08,18,04,53,13.20
2009,08,18,04,54,13.20
2009,08,18,04,55,13.20
2009,08,18,04,56,13.20
2009,08,18,04,57,13.20
2009,08,18,04,58,13.20
2009,08,18,04,59,13.20
2009,08,18,05,00,13.20
2009,08,18,05,01,13.10
2009,08,18,05,02,13.10
2009,08,18,05,03,13.10
2009,08,18,05,04,13.10
2009,08,18,05,05,13.10
2009,08,18,05,06,13.10
2009,08,18,05,07,13.10
2009,08,18,05,08,13.10
2009,08,18,05,09,13.10
2009,08,18,05,10,13.10
2009,08,18,05,11,13.10
2009,08,18,05,12,13.10
2009,08,18,05,13,13.10
2009,08,18,05,14,13.10
2009,08,18,05,15,13.10
2009,08,18,05,16,13.10
2009,08,18,05,17,13.10
2009,08,18,05,18,13.10
2009,08,18,05,19,13.10
2009,08,18,05,20,13.00
2009,08,18,05,21,13.00
2009,08,18,05,22,13.00
2009,08,18,05,23,13.00
2009,08,18,05,24,13.00
2009,08,18,05,25,13.00
2009,08,18,05,26,13.00
2009,08,18,05,27,12.90
2009,08,18,05,28,12.90
2009,08,18,05,29,12.90
2009,08,18,05,30,12.90
2009,08,18,05,31,12.90
2009,08,18,05,32,12.90
2009,08,18,05,33,12.90
2009,08,18,05,34,12.90
2009,08,18,05,35,12.90
2009,08,18,05,36,12.90
2009,08,18,05,37,12.90
2009,08,18,05,38,12.90
2009,08,18,05,39,12.90
2009,08,18,05,40,12.90
2009,08,18,05,41,12.90
2009,08,18,05,42,12.90
2009,08,18,05,43,12.90
2009,08,18,05,44,12.90
2009,08,18,05,45,12.90
2009,08,18,05,46,12.80
2009,08,18,05,47,12.80
2009,08,18,05,48,12.80
2009,08,18,05,49,12.80
2009,08,18,05,50,12.80
2009,08,18,05,51,12.80
2009,08,18,05,52,12.80
2009,08,18,05,53,12.80
2009,08,18,05,54,12.80
2009,08,18,05,55,12.80
2009,08,18,05,56,12.80
2009,08,18,05,57,12.70
2009,08,18,05,58,12.70
2009,08,18,05,59,12.70
2009,08,18,06,00,12.70
2009,08,18,06,01,12.70
2009,08,18,06,02,12.70
2009,08,18,06,03,12.70
2009,08,18,06,04,12.70
2009,08,18,06,05,12.70
2009,08,18,06,06,12.70
2009,08,18,06,07,12.60
2009,08,18,06,08,12.60
2009,08,18,06,09,12.60
2009,08,18,06,10,12.60
2009,08,18,06,11,12.60
2009,08,18,06,12,12.60
2009,08,18,06,13,12.60
2009,08,18,06,14,12.60
2009,08,18,06,15,12.50
2009,08,18,06,16,12.50
2009,08,18,06,17,12.50
2009,08,18,06,18,12.50
2009,08,18,06,19,12.50
2009,08,18,06,20,12.50
2009,08,18,06,21,12.50
2009,08,18,06,22,12.50
2009,08,18,06,23,12.50
2009,08,18,06,24,12.50
2009,08,18,06,25,12.50
2009,08,18,06,26,12.50
2009,08,18,06,27,12.50
2009,08,18,06,28,12.50
2009,08,18,06,29,12.50
2009,08,18,06,30,12.50
2009,08,18,06,31,12.50
2009,08,18,06,32,12.50
2009,08,18,06,33,12.50
2009,08,18,06,34,12.50
2009,08,18,06,35,12.60
2009,08,18,06,36,12.60
2009,08,18,06,37,12.60
2009,08,18,06,38,12.60
2009,08,18,06,39,12.60
2009,08,18,06,40,12.60
2009,08,18,06,41,12.60
2009,08,18,06,42,12.60
2009,08,18,06,43,12.60
2009,08,18,06,44,12.60
2009,08,18,06,45,12.60
2009,08,18,06,46,12.60
2009,08,18,06,47,12.60
2009,08,18,06,48,12.60
2009,08,18,06,49,12.60
2009,08,18,06,50,12.60
2009,08,18,06,51,12.60
2009,08,18,06,52,12.60
2009,08,18,06,53,12.60
2009,08,18,06,54,12.60
2009,08,18,06,55,12.60
2009,08,18,06,56,12.60
2009,08,18,06,57,12.60
2009,08,18,06,58,12.60
2009,08,18,06,59,12.60
2009,08,18,07,00,12.60
2009,08,18,07,01,12.60
2009,08,18,07,02,12.60
2009,08,18,07,03,12.60
2009,08,18,07,04,12.60
2009,08,18,07,05,12.60
2009,08,18,07,06,12.60
2009,08,18,07,07,12.60
2009,08,18,07,08,12.60
2009,08,18,07,09,12.60
2009,08,18,07,10,12.60
2009,08,18,07,11,12.60
2009,08,18,07,12,12.70
2009,08,18,07,13,12.70
2009,08,18,07,14,12.70
2009,08,18,07,15,12.70
2009,08,18,07,16,12.70
2009,08,18,07,17,12.70
2009,08,18,07,18,12.70
2009,08,18,07,19,12.70
2009,08,18,07,20,12.70
2009,08,18,07,21,12.80
2009,08,18,07,22,12.80
2009,08,18,07,23,12.80
2009,08,18,07,24,12.80
2009,08,18,07,25,12.80
2009,08,18,07,26,12.80
2009,08,18,07,27,12.80
2009,08,18,07,28,12.80
2009,08,18,07,29,12.80
2009,08,18,07,30,12.90
2009,08,18,07,31,12.90
2009,08,18,07,32,12.90
2009,08,18,07,33,12.90
2009,08,18,07,34,13.00
2009,08,18,07,35,13.00
2009,08,18,07,36,13.00
2009,08,18,07,37,13.10
2009,08,18,07,38,13.10
2009,08,18,07,39,13.10
2009,08,18,07,40,13.10
2009,08,18,07,41,13.10
2009,08,18,07,42,13.10
2009,08,18,07,43,13.20
2009,08,18,07,44,13.20
2009,08,18,07,45,13.20
2009,08,18,07,46,13.20
2009,08,18,07,47,13.30
2009,08,18,07,48,13.30
2009,08,18,07,49,13.40
2009,08,18,07,50,13.40
2009,08,18,07,51,13.40
2009,08,18,07,52,13.50
2009,08,18,07,53,13.50
2009,08,18,07,54,13.60
2009,08,18,07,55,13.60
2009,08,18,07,56,13.60
2009,08,18,07,57,13.70
2009,08,18,07,58,13.70
2009,08,18,07,59,13.70
2009,08,18,08,00,13.70
2009,08,18,08,01,13.70
2009,08,18,08,02,13.80
2009,08,18,08,03,13.80
2009,08,18,08,04,13.80
2009,08,18,08,05,13.80
2009,08,18,08,06,13.90
2009,08,18,08,07,13.90
2009,08,18,08,08,14.00
2009,08,18,08,09,14.00
2009,08,18,08,10,14.10
2009,08,18,08,11,14.10
2009,08,18,08,12,14.20
2009,08,18,08,13,14.30
2009,08,18,08,14,14.40
2009,08,18,08,15,14.40
2009,08,18,08,16,14.50
2009,08,18,08,17,14.60
2009,08,18,08,18,14.70
2009,08,18,08,19,14.80
2009,08,18,08,20,15.00
2009,08,18,08,21,15.00
2009,08,18,08,22,15.00
2009,08,18,08,23,15.10
2009,08,18,08,24,15.20
2009,08,18,08,25,15.30
2009,08,18,08,26,15.40
2009,08,18,08,27,15.50
2009,08,18,08,28,15.60
2009,08,18,08,29,15.70
2009,08,18,08,30,15.80
2009,08,18,08,31,15.80
2009,08,18,08,32,15.90
2009,08,18,08,33,16.00
2009,08,18,08,34,16.10
2009,08,18,08,35,16.20
2009,08,18,08,36,16.30
2009,08,18,08,37,16.40
2009,08,18,08,38,16.50
2009,08,18,08,39,16.60
2009,08,18,08,40,16.70
2009,08,18,08,41,16.80
2009,08,18,08,42,16.80
2009,08,18,08,43,16.90
2009,08,18,08,44,17.00
2009,08,18,08,45,17.10
2009,08,18,08,46,17.20
2009,08,18,08,47,17.30
2009,08,18,08,48,17.40
2009,08,18,08,49,17.50
2009,08,18,08,50,17.50
2009,08,18,08,51,17.60
2009,08,18,08,52,17.70
2009,08,18,08,53,17.70
2009,08,18,08,54,17.70
2009,08,18,08,55,17.80
2009,08,18,08,56,17.80
2009,08,18,08,57,17.90
2009,08,18,08,58,17.90
2009,08,18,08,59,18.00
2009,08,18,09,00,18.10
2009,08,18,09,01,18.20
2009,08,18,09,02,18.30
2009,08,18,09,03,18.40
2009,08,18,09,04,18.50
2009,08,18,09,05,18.60
2009,08,18,09,06,18.70
2009,08,18,09,07,18.80
2009,08,18,09,08,18.80
2009,08,18,09,09,18.90
2009,08,18,09,10,19.00
2009,08,18,09,11,19.00
2009,08,18,09,12,19.10
2009,08,18,09,13,19.20
2009,08,18,09,14,19.20
2009,08,18,09,15,19.30
2009,08,18,09,16,19.40
2009,08,18,09,17,19.40
2009,08,18,09,18,19.50
2009,08,18,09,19,19.60
2009,08,18,09,20,19.60
2009,08,18,09,21,19.70
2009,08,18,09,22,19.70
2009,08,18,09,23,19.80
2009,08,18,09,24,19.80
2009,08,18,09,25,19.90
2009,08,18,09,26,19.90
2009,08,18,09,27,19.90
2009,08,18,09,28,20.00
2009,08,18,09,29,20.00
2009,08,18,09,30,20.00
2009,08,18,09,31,20.10
2009,08,18,09,32,20.10
2009,08,18,09,33,20.10
2009,08,18,09,34,20.20
2009,08,18,09,35,20.20
2009,08,18,09,36,20.20
2009,08,18,09,37,20.20
2009,08,18,09,38,20.20
2009,08,18,09,39,20.20
2009,08,18,09,40,20.20
2009,08,18,09,41,20.20
2009,08,18,09,42,20.20
2009,08,18,09,43,20.30
2009,08,18,09,44,20.30
2009,08,18,09,45,20.30
2009,08,18,09,46,20.30
2009,08,18,09,47,20.30
2009,08,18,09,48,20.30
2009,08,18,09,49,20.30
2009,08,18,09,50,20.30
2009,08,18,09,51,20.40
2009,08,18,09,52,20.40
2009,08,18,09,53,20.40
2009,08,18,09,54,20.50
2009,08,18,09,55,20.50
2009,08,18,09,56,20.60
2009,08,18,09,57,20.60
2009,08,18,09,58,20.60
2009,08,18,09,59,20.70
2009,08,18,10,00,20.70
2009,08,18,10,01,20.70
2009,08,18,10,02,20.80
2009,08,18,10,03,20.80
2009,08,18,10,04,20.80
2009,08,18,10,05,20.90
2009,08,18,10,06,21.00
2009,08,18,10,07,21.00
2009,08,18,10,08,21.10
2009,08,18,10,09,21.10
2009,08,18,10,10,21.10
2009,08,18,10,11,21.10
2009,08,18,10,12,21.20
2009,08,18,10,13,21.20
2009,08,18,10,14,21.20
2009,08,18,10,15,21.20
2009,08,18,10,16,21.20
2009,08,18,10,17,21.20
2009,08,18,10,18,21.20
2009,08,18,10,19,21.20
2009,08,18,10,20,21.20
2009,08,18,10,21,21.30
2009,08,18,10,22,21.30
2009,08,18,10,23,21.30
2009,08,18,10,24,21.30
2009,08,18,10,25,21.30
2009,08,18,10,26,21.40
2009,08,18,10,27,21.40
2009,08,18,10,28,21.40
2009,08,18,10,29,21.50
2009,08,18,10,30,21.50
2009,08,18,10,31,21.60
2009,08,18,10,32,21.60
2009,08,18,10,33,21.70
2009,08,18,10,34,21.70
2009,08,18,10,35,21.80
2009,08,18,10,36,21.80
2009,08,18,10,37,21.80
2009,08,18,10,38,21.90
2009,08,18,10,39,22.00
2009,08,18,10,40,22.00
2009,08,18,10,41,22.10
2009,08,18,10,42,22.10
2009,08,18,10,43,22.20
2009,08,18,10,44,22.20
2009,08,18,10,45,22.20
2009,08,18,10,46,22.20
2009,08,18,10,47,22.30
2009,08,18,10,48,22.30
2009,08,18,10,49,22.30
2009,08,18,10,50,22.30
2009,08,18,10,51,22.30
2009,08,18,10,52,22.30
2009,08,18,10,53,22.40
2009,08,18,10,54,22.40
2009,08,18,10,55,22.40
2009,08,18,10,56,22.40
2009,08,18,10,57,22.50
2009,08,18,10,58,22.50
2009,08,18,10,59,22.50
2009,08,18,11,00,22.60
2009,08,18,11,01,22.60
2009,08,18,11,02,22.60
2009,08,18,11,03,22.60
2009,08,18,11,04,22.60
2009,08,18,11,05,22.60
2009,08,18,11,06,22.60
2009,08,18,11,07,22.60
2009,08,18,11,08,22.70
2009,08,18,11,09,22.70
2009,08,18,11,10,22.70
2009,08,18,11,11,22.70
2009,08,18,11,12,22.70
2009,08,18,11,13,22.80
2009,08,18,11,14,22.80
2009,08,18,11,15,22.80
2009,08,18,11,16,22.90
2009,08,18,11,17,22.90
2009,08,18,11,18,23.00
2009,08,18,11,19,23.00
2009,08,18,11,20,23.10
2009,08,18,11,21,23.10
2009,08,18,11,22,23.20
2009,08,18,11,23,23.20
2009,08,18,11,24,23.30
2009,08,18,11,25,23.30
2009,08,18,11,26,23.40
2009,08,18,11,27,23.40
2009,08,18,11,28,23.40
2009,08,18,11,29,23.40
2009,08,18,11,30,23.40
2009,08,18,11,31,23.40
2009,08,18,11,32,23.40
2009,08,18,11,33,23.40
2009,08,18,11,34,23.50
2009,08,18,11,35,23.50
2009,08,18,11,36,23.50
2009,08,18,11,37,23.60
2009,08,18,11,38,23.60
2009,08,18,11,39,23.60
2009,08,18,11,40,23.60
2009,08,18,11,41,23.50
2009,08,18,11,42,23.50
2009,08,18,11,43,23.40
2009,08,18,11,44,23.40
2009,08,18,11,45,23.40
2009,08,18,11,46,23.40
2009,08,18,11,47,23.50
2009,08,18,11,48,23.50
2009,08,18,11,49,23.50
2009,08,18,11,50,23.50
2009,08,18,11,51,23.40
2009,08,18,11,52,23.30
2009,08,18,11,53,23.30
2009,08,18,11,54,23.30
2009,08,18,11,55,23.30
2009,08,18,11,56,23.30
2009,08,18,11,57,23.40
2009,08,18,11,58,23.40
2009,08,18,11,59,23.40
2009,08,18,12,00,23.40
2009,08,18,12,01,23.30
2009,08,18,12,02,23.30
2009,08,18,12,03,23.30
2009,08,18,12,04,23.30
2009,08,18,12,05,23.30
2009,08,18,12,06,23.30
2009,08,18,12,07,23.30
2009,08,18,12,08,23.30
2009,08,18,12,09,23.30
2009,08,18,12,10,23.30
2009,08,18,12,11,23.30
2009,08,18,12,12,23.30
2009,08,18,12,13,23.30
2009,08,18,12,14,23.30
2009,08,18,12,15,23.40
2009,08,18,12,16,23.50
2009,08,18,12,17,23.50
2009,08,18,12,18,23.60
2009,08,18,12,19,23.70
2009,08,18,12,20,23.80
2009,08,18,12,21,23.80
2009,08,18,12,22,23.80
2009,08,18,12,23,23.80
2009,08,18,12,24,23.80
2009,08,18,12,25,23.90
2009,08,18,12,26,23.90
2009,08,18,12,27,24.00
2009,08,18,12,28,24.10
2009,08,18,12,29,24.20
2009,08,18,12,30,24.20
2009,08,18,12,31,24.30
2009,08,18,12,32,24.40
2009,08,18,12,33,24.40
2009,08,18,12,34,24.50
2009,08,18,12,35,24.60
2009,08,18,12,36,24.60
2009,08,18,12,37,24.70
2009,08,18,12,38,24.80
2009,08,18,12,39,24.90
2009,08,18,12,40,24.90
2009,08,18,12,41,24.90
2009,08,18,12,42,24.90
2009,08,18,12,43,24.90
2009,08,18,12,44,24.90
2009,08,18,12,45,24.90
2009,08,18,12,46,25.00
2009,08,18,12,47,25.10
2009,08,18,12,48,25.10
2009,08,18,12,49,25.20
2009,08,18,12,50,25.30
2009,08,18,12,51,25.40
2009,08,18,12,52,25.40
2009,08,18,12,53,25.30
2009,08,18,12,54,25.20
2009,08,18,12,55,25.10
2009,08,18,12,56,25.00
2009,08,18,12,57,25.00
2009,08,18,12,58,25.10
2009,08,18,12,59,25.20
2009,08,18,13,00,25.30
2009,08,18,13,01,25.30
2009,08,18,13,02,25.40
2009,08,18,13,03,25.30
2009,08,18,13,04,25.30
2009,08,18,13,05,25.40
2009,08,18,13,06,25.50
2009,08,18,13,07,25.60
2009,08,18,13,08,25.70
2009,08,18,13,09,25.80
2009,08,18,13,10,25.80
2009,08,18,13,11,25.90
2009,08,18,13,12,25.90
2009,08,18,13,13,25.90
2009,08,18,13,14,25.90
2009,08,18,13,15,25.90
2009,08,18,13,16,25.90
2009,08,18,13,17,25.90
2009,08,18,13,18,25.90
2009,08,18,13,19,25.90
2009,08,18,13,20,26.00
2009,08,18,13,21,26.10
2009,08,18,13,22,26.20
2009,08,18,13,23,26.30
2009,08,18,13,24,26.50
2009,08,18,13,25,26.60
2009,08,18,13,26,26.70
2009,08,18,13,27,26.70
2009,08,18,13,28,26.70
2009,08,18,13,29,26.80
2009,08,18,13,30,26.80
2009,08,18,13,31,26.90
2009,08,18,13,32,27.00
2009,08,18,13,33,27.10
2009,08,18,13,34,27.10
2009,08,18,13,35,27.10
2009,08,18,13,36,27.10
2009,08,18,13,37,27.10
2009,08,18,13,38,27.10
2009,08,18,13,39,27.00
2009,08,18,13,40,26.90
2009,08,18,13,41,26.90
2009,08,18,13,42,27.00
2009,08,18,13,43,27.00
2009,08,18,13,44,27.10
2009,08,18,13,45,27.10
2009,08,18,13,46,27.00
2009,08,18,13,47,26.90
2009,08,18,13,48,26.80
2009,08,18,13,49,26.70
2009,08,18,13,50,26.60
2009,08,18,13,51,26.50
2009,08,18,13,52,26.40
2009,08,18,13,53,26.40
2009,08,18,13,54,26.50
2009,08,18,13,55,26.50
2009,08,18,13,56,26.60
2009,08,18,13,57,26.60
2009,08,18,13,58,26.60
2009,08,18,13,59,26.60
2009,08,18,14,00,26.70
2009,08,18,14,01,26.70
2009,08,18,14,02,26.80
2009,08,18,14,03,26.90
2009,08,18,14,04,26.90
2009,08,18,14,05,26.90
2009,08,18,14,06,26.90
2009,08,18,14,07,26.90
2009,08,18,14,08,26.90
2009,08,18,14,09,26.90
2009,08,18,14,10,26.90
2009,08,18,14,11,26.80
2009,08,18,14,12,26.80
2009,08,18,14,13,26.70
2009,08,18,14,14,26.70
2009,08,18,14,15,26.80
2009,08,18,14,16,26.70
2009,08,18,14,17,26.60
2009,08,18,14,18,26.60
2009,08,18,14,19,26.50
2009,08,18,14,20,26.50
2009,08,18,14,21,26.60
2009,08,18,14,22,26.60
2009,08,18,14,23,26.70
2009,08,18,14,24,26.70
2009,08,18,14,25,26.70
2009,08,18,14,26,26.70
2009,08,18,14,27,26.80
2009,08,18,14,28,26.80
2009,08,18,14,29,26.80
2009,08,18,14,30,26.80
2009,08,18,14,31,26.80
2009,08,18,14,32,26.80
2009,08,18,14,33,26.70
2009,08,18,14,34,26.70
2009,08,18,14,35,26.80
2009,08,18,14,36,26.80
2009,08,18,14,37,26.80
2009,08,18,14,38,26.90
2009,08,18,14,39,26.90
2009,08,18,14,40,26.90
2009,08,18,14,41,26.90
2009,08,18,14,42,26.90
2009,08,18,14,43,26.90
2009,08,18,14,44,26.90
2009,08,18,14,45,26.90
2009,08,18,14,46,26.90
2009,08,18,14,47,26.90
2009,08,18,14,48,26.90
2009,08,18,14,49,26.90
2009,08,18,14,50,26.90
2009,08,18,14,51,26.90
2009,08,18,14,52,27.00
2009,08,18,14,53,27.00
2009,08,18,14,54,27.00
2009,08,18,14,55,27.00
2009,08,18,14,56,27.10
2009,08,18,14,57,27.10
2009,08,18,14,58,27.10
2009,08,18,14,59,27.00
2009,08,18,15,00,26.90
2009,08,18,15,01,26.90
2009,08,18,15,02,26.90
2009,08,18,15,03,26.90
2009,08,18,15,04,26.90
2009,08,18,15,05,26.90
2009,08,18,15,06,26.90
2009,08,18,15,07,26.90
2009,08,18,15,08,27.00
2009,08,18,15,09,27.00
2009,08,18,15,10,27.00
2009,08,18,15,11,27.00
2009,08,18,15,12,27.00
2009,08,18,15,13,27.00
2009,08,18,15,14,26.90
2009,08,18,15,15,26.90
2009,08,18,15,16,26.90
2009,08,18,15,17,26.80
2009,08,18,15,18,26.80
2009,08,18,15,19,26.80
2009,08,18,15,20,26.80
2009,08,18,15,21,26.80
2009,08,18,15,22,26.80
2009,08,18,15,23,26.80
2009,08,18,15,24,26.80
2009,08,18,15,25,26.80
2009,08,18,15,26,26.80
2009,08,18,15,27,26.80
2009,08,18,15,28,26.80
2009,08,18,15,29,26.80
2009,08,18,15,30,26.80
2009,08,18,15,31,26.80
2009,08,18,15,32,26.80
2009,08,18,15,33,26.80
2009,08,18,15,34,26.90
2009,08,18,15,35,26.90
2009,08,18,15,36,26.90
2009,08,18,15,37,26.90
2009,08,18,15,38,26.90
2009,08,18,15,39,26.80
2009,08,18,15,40,26.80
2009,08,18,15,41,26.80
2009,08,18,15,42,26.80
2009,08,18,15,43,26.80
2009,08,18,15,44,26.80
2009,08,18,15,45,26.80
2009,08,18,15,46,26.70
2009,08,18,15,47,26.70
2009,08,18,15,48,26.70
2009,08,18,15,49,26.70
2009,08,18,15,50,26.70
2009,08,18,15,51,26.60
2009,08,18,15,52,26.60
2009,08,18,15,53,26.60
2009,08,18,15,54,26.50
2009,08,18,15,55,26.50
2009,08,18,15,56,26.40
2009,08,18,15,57,26.40
2009,08,18,15,58,26.40
2009,08,18,15,59,26.40
2009,08,18,16,00,26.40
2009,08,18,16,01,26.40
2009,08,18,16,02,26.40
2009,08,18,16,03,26.30
2009,08,18,16,04,26.30
2009,08,18,16,05,26.30
2009,08,18,16,06,26.20
2009,08,18,16,07,26.20
2009,08,18,16,08,26.20
2009,08,18,16,09,26.20
2009,08,18,16,10,26.20
2009,08,18,16,11,26.20
2009,08,18,16,12,26.10
2009,08,18,16,13,26.10
2009,08,18,16,14,26.10
2009,08,18,16,15,26.10
2009,08,18,16,16,26.10
2009,08,18,16,17,26.10
2009,08,18,16,18,26.10
2009,08,18,16,19,26.10
2009,08,18,16,20,26.00
2009,08,18,16,21,26.00
2009,08,18,16,22,25.90
2009,08,18,16,23,25.90
2009,08,18,16,24,25.90
2009,08,18,16,25,25.90
2009,08,18,16,26,25.90
2009,08,18,16,27,25.80
2009,08,18,16,28,25.70
2009,08,18,16,29,25.70
2009,08,18,16,30,25.60
2009,08,18,16,31,25.50
2009,08,18,16,32,25.50
2009,08,18,16,33,25.40
2009,08,18,16,34,25.30
2009,08,18,16,35,25.30
2009,08,18,16,36,25.20
2009,08,18,16,37,25.10
2009,08,18,16,38,25.10
2009,08,18,16,39,25.10
2009,08,18,16,40,25.00
2009,08,18,16,41,25.00
2009,08,18,16,42,24.90
2009,08,18,16,43,24.90
2009,08,18,16,44,24.90
2009,08,18,16,45,24.90
2009,08,18,16,46,24.90
2009,08,18,16,47,24.80
2009,08,18,16,48,24.80
2009,08,18,16,49,24.80
2009,08,18,16,50,24.80
2009,08,18,16,51,24.70
2009,08,18,16,52,24.70
2009,08,18,16,53,24.70
2009,08,18,16,54,24.70
2009,08,18,16,55,24.60
2009,08,18,16,56,24.60
2009,08,18,16,57,24.60
2009,08,18,16,58,24.60
2009,08,18,16,59,24.60
2009,08,18,17,00,24.60
2009,08,18,17,01,24.60
2009,08,18,17,02,24.60
2009,08,18,17,03,24.70
2009,08,18,17,04,24.70
2009,08,18,17,05,24.70
2009,08,18,17,06,24.70
2009,08,18,17,07,24.70
2009,08,18,17,08,24.70
2009,08,18,17,09,24.70
2009,08,18,17,10,24.70
2009,08,18,17,11,24.70
2009,08,18,17,12,24.70
2009,08,18,17,13,24.70
2009,08,18,17,14,24.70
2009,08,18,17,15,24.70
2009,08,18,17,16,24.80
2009,08,18,17,17,24.80
2009,08,18,17,18,24.80
2009,08,18,17,19,24.80